Location: B?lite?ti
(46.2833°N, 22.7333°E)
Time: 03:23:13
(UTC+00:00)

Cosmos 1553 Rocket - Pass Details

Date: 24 January 2021
Orbit: 941 x 1008 km, 82.9° (Epoch: 26 February)

Event Time Altitude Azimuth Distance (km) Brightness Sun altitude
Rises 17:38:40 0° 351° (N) 3,750 7.1 -23.4°
Reaches altitude 10° 17:41:13 10° 352° (N) 2,793 6.4 -23.9°
Maximum altitude 17:47:40 86° 82° (E) 1,009 3.9 -25.0°
Drops below altitude 10° 17:54:00 10° 172° (S) 2,743 6.3 -26.1°
Sets 17:56:30 0° 173° (S) 3,679 7.0 -26.5°
